Saint Bonnet de Bellac- Haute Vienne - France
Donnes mto: mercredi, 28/09/2011
Date Horaire Temp. E. Hum. E. P.atmo. Pluie Vent Direction Direction Ensoleilleme Solaire P. de rose Temp au vent Rafales
28/09/2011 00:00 17,2 C 77 % 1025,8 hPa 0,0 mm 0,0 km/h (0 Bft) E-NE 67 0 min 0 W/m 13,1 C 17,2 C 0,0 km/h (0 Bft)
28/09/2011 00:05 17,1 C 77 % 1025,9 hPa 0,0 mm 0,0 km/h (0 Bft) E-NE 67 0 min 0 W/m 13,0 C 17,1 C 0,0 km/h (0 Bft)
28/09/2011 00:10 17,0 C 77 % 1025,8 hPa 0,0 mm 0,4 km/h (0 Bft) E 90 0 min 0 W/m 12,9 C 17,0 C 4,0 km/h (1 Bft)
28/09/2011 00:15 16,9 C 77 % 1025,7 hPa 0,0 mm 0,0 km/h (0 Bft) E 90 0 min 0 W/m 12,8 C 16,9 C 0,0 km/h (0 Bft)
28/09/2011 00:20 16,9 C 77 % 1025,7 hPa 0,0 mm 0,0 km/h (0 Bft) E 90 0 min 0 W/m 12,8 C 16,9 C 0,0 km/h (0 Bft)
28/09/2011 00:25 16,9 C 78 % 1025,7 hPa 0,0 mm 0,0 km/h (0 Bft) E 90 0 min 0 W/m 13,0 C 16,9 C 0,0 km/h (0 Bft)
28/09/2011 00:30 16,9 C 78 % 1025,6 hPa 0,0 mm 0,0 km/h (0 Bft) E 90 0 min 0 W/m 13,0 C 16,9 C 1,4 km/h (1 Bft)
28/09/2011 00:35 16,9 C 78 % 1025,6 hPa 0,0 mm 1,4 km/h (1 Bft) E-SE 112 0 min 0 W/m 13,0 C 16,9 C 3,2 km/h (1 Bft)
28/09/2011 00:40 17,1 C 78 % 1025,6 hPa 0,0 mm 3,2 km/h (1 Bft) E-SE 112 0 min 0 W/m 13,2 C 17,1 C 4,3 km/h (1 Bft)
28/09/2011 00:45 17,1 C 78 % 1025,6 hPa 0,0 mm 0,0 km/h (0 Bft) SE 135 0 min 0 W/m 13,2 C 17,1 C 0,0 km/h (0 Bft)
28/09/2011 00:50 17,0 C 78 % 1025,6 hPa 0,0 mm 0,7 km/h (0 Bft) E 90 0 min 0 W/m 13,1 C 17,0 C 1,8 km/h (1 Bft)
28/09/2011 00:55 16,9 C 78 % 1025,6 hPa 0,0 mm 3,2 km/h (1 Bft) E-SE 112 0 min 0 W/m 13,0 C 16,9 C 8,3 km/h (2 Bft)
28/09/2011 01:00 16,9 C 78 % 1025,5 hPa 0,0 mm 2,5 km/h (1 Bft) E 90 0 min 0 W/m 13,0 C 16,9 C 7,2 km/h (2 Bft)
28/09/2011 01:05 16,8 C 78 % 1025,5 hPa 0,0 mm 0,4 km/h (0 Bft) E-SE 112 0 min 0 W/m 12,9 C 16,8 C 3,6 km/h (1 Bft)
28/09/2011 01:10 16,8 C 78 % 1025,5 hPa 0,0 mm 0,0 km/h (0 Bft) E 90 0 min 0 W/m 12,9 C 16,8 C 0,0 km/h (0 Bft)
28/09/2011 01:15 16,6 C 78 % 1025,6 hPa 0,0 mm 0,0 km/h (0 Bft) E 90 0 min 0 W/m 12,7 C 16,6 C 0,0 km/h (0 Bft)
28/09/2011 01:20 16,4 C 78 % 1025,6 hPa 0,0 mm 0,0 km/h (0 Bft) E 90 0 min 0 W/m 12,6 C 16,4 C 0,0 km/h (0 Bft)
28/09/2011 01:25 16,3 C 78 % 1025,5 hPa 0,0 mm 0,0 km/h (0 Bft) E 90 0 min 0 W/m 12,5 C 16,3 C 0,0 km/h (0 Bft)
28/09/2011 01:30 16,1 C 78 % 1025,6 hPa 0,0 mm 0,0 km/h (0 Bft) E-NE 67 0 min 0 W/m 12,3 C 16,1 C 4,0 km/h (1 Bft)
28/09/2011 01:35 15,9 C 79 % 1025,5 hPa 0,0 mm 0,0 km/h (0 Bft) E-NE 67 0 min 0 W/m 12,3 C 15,9 C 0,0 km/h (0 Bft)
28/09/2011 01:40 15,8 C 79 % 1025,4 hPa 0,0 mm 0,4 km/h (0 Bft) E-NE 67 0 min 0 W/m 12,2 C 15,8 C 0,4 km/h (0 Bft)
28/09/2011 01:45 15,8 C 80 % 1025,4 hPa 0,0 mm 0,4 km/h (0 Bft) E 90 0 min 0 W/m 12,4 C 15,8 C 4,0 km/h (1 Bft)
28/09/2011 01:50 15,7 C 79 % 1025,4 hPa 0,0 mm 0,4 km/h (0 Bft) N-NE 22 0 min 0 W/m 12,1 C 15,7 C 4,0 km/h (1 Bft)
28/09/2011 01:55 15,6 C 79 % 1025,4 hPa 0,0 mm 0,0 km/h (0 Bft) E 90 0 min 0 W/m 12,0 C 15,6 C 0,0 km/h (0 Bft)
28/09/2011 02:00 15,5 C 80 % 1025,4 hPa 0,0 mm 0,0 km/h (0 Bft) N-NE 22 0 min 0 W/m 12,1 C 15,5 C 0,0 km/h (0 Bft)
28/09/2011 02:05 15,4 C 80 % 1025,4 hPa 0,0 mm 0,0 km/h (0 Bft) N-NE 22 0 min 0 W/m 12,0 C 15,4 C 0,0 km/h (0 Bft)
28/09/2011 02:10 15,3 C 80 % 1025,4 hPa 0,0 mm 0,0 km/h (0 Bft) N-NE 22 0 min 0 W/m 11,9 C 15,3 C 0,0 km/h (0 Bft)
28/09/2011 02:15 15,2 C 80 % 1025,3 hPa 0,0 mm 0,0 km/h (0 Bft) N-NE 22 0 min 0 W/m 11,8 C 15,2 C 0,0 km/h (0 Bft)
28/09/2011 02:20 15,1 C 80 % 1025,3 hPa 0,0 mm 0,0 km/h (0 Bft) N-NE 22 0 min 0 W/m 11,7 C 15,1 C 0,0 km/h (0 Bft)
28/09/2011 02:25 14,9 C 81 % 1025,3 hPa 0,0 mm 0,0 km/h (0 Bft) NE 45 0 min 0 W/m 11,7 C 14,9 C 0,0 km/h (0 Bft)
28/09/2011 02:30 14,9 C 81 % 1025,2 hPa 0,0 mm 0,0 km/h (0 Bft) NE 45 0 min 0 W/m 11,7 C 14,9 C 0,0 km/h (0 Bft)
28/09/2011 02:35 14,8 C 81 % 1025,3 hPa 0,0 mm 0,0 km/h (0 Bft) NE 45 0 min 0 W/m 11,6 C 14,8 C 0,0 km/h (0 Bft)
28/09/2011 02:40 14,7 C 81 % 1025,2 hPa 0,0 mm 0,0 km/h (0 Bft) NE 45 0 min 0 W/m 11,5 C 14,7 C 0,0 km/h (0 Bft)
28/09/2011 02:45 14,6 C 82 % 1025,2 hPa 0,0 mm 0,0 km/h (0 Bft) N-NE 22 0 min 0 W/m 11,6 C 14,6 C 0,0 km/h (0 Bft)
28/09/2011 02:50 14,6 C 83 % 1025,2 hPa 0,0 mm 0,0 km/h (0 Bft) N-NE 22 0 min 0 W/m 11,7 C 14,6 C 0,0 km/h (0 Bft)
28/09/2011 02:55 14,6 C 83 % 1025,2 hPa 0,0 mm 0,0 km/h (0 Bft) N-NE 22 0 min 0 W/m 11,7 C 14,6 C 0,0 km/h (0 Bft)
28/09/2011 03:02 14,5 C 83 % 1025,1 hPa 0,0 mm 0,0 km/h (0 Bft) N-NE 22 0 min 0 W/m 11,6 C 14,5 C 0,0 km/h (0 Bft)
28/09/2011 03:05 14,4 C 83 % 1025,1 hPa 0,0 mm 0,0 km/h (0 Bft) N-NE 22 0 min 0 W/m 11,5 C 14,4 C 0,0 km/h (0 Bft)
28/09/2011 03:10 14,3 C 83 % 1025,0 hPa 0,0 mm 0,0 km/h (0 Bft) N-NE 22 0 min 0 W/m 11,5 C 14,3 C 0,0 km/h (0 Bft)
28/09/2011 03:15 14,2 C 84 % 1025,0 hPa 0,0 mm 0,0 km/h (0 Bft) N-NE 22 0 min 0 W/m 11,5 C 14,2 C 0,0 km/h (0 Bft)
28/09/2011 03:20 14,1 C 84 % 1024,9 hPa 0,0 mm 0,0 km/h (0 Bft) N-NE 22 0 min 0 W/m 11,4 C 14,1 C 0,0 km/h (0 Bft)
28/09/2011 03:25 14,0 C 83 % 1024,9 hPa 0,0 mm 0,0 km/h (0 Bft) N-NE 22 0 min 0 W/m 11,2 C 14,0 C 0,0 km/h (0 Bft)
28/09/2011 03:30 13,9 C 83 % 1024,9 hPa 0,0 mm 0,0 km/h (0 Bft) N-NE 22 0 min 0 W/m 11,1 C 13,9 C 0,0 km/h (0 Bft)
28/09/2011 03:35 13,8 C 84 % 1024,9 hPa 0,0 mm 0,0 km/h (0 Bft) N-NE 22 0 min 0 W/m 11,1 C 13,8 C 0,0 km/h (0 Bft)
28/09/2011 03:40 13,8 C 84 % 1024,8 hPa 0,0 mm 0,0 km/h (0 Bft) N-NE 22 0 min 0 W/m 11,1 C 13,8 C 0,0 km/h (0 Bft)
28/09/2011 03:45 13,7 C 84 % 1024,8 hPa 0,0 mm 0,0 km/h (0 Bft) N-NE 22 0 min 0 W/m 11,0 C 13,7 C 0,0 km/h (0 Bft)
28/09/2011 03:50 13,6 C 84 % 1024,8 hPa 0,0 mm 0,0 km/h (0 Bft) N-NE 22 0 min 0 W/m 10,9 C 13,6 C 0,0 km/h (0 Bft)
28/09/2011 03:55 13,5 C 84 % 1024,7 hPa 0,0 mm 0,0 km/h (0 Bft) N-NE 22 0 min 0 W/m 10,8 C 13,5 C 0,0 km/h (0 Bft)
28/09/2011 04:00 13,4 C 85 % 1024,6 hPa 0,0 mm 0,0 km/h (0 Bft) N-NE 22 0 min 0 W/m 10,9 C 13,4 C 0,0 km/h (0 Bft)
28/09/2011 04:05 13,3 C 85 % 1024,7 hPa 0,0 mm 0,0 km/h (0 Bft) E-NE 67 0 min 0 W/m 10,8 C 13,3 C 0,0 km/h (0 Bft)
28/09/2011 04:10 13,3 C 85 % 1024,7 hPa 0,0 mm 0,0 km/h (0 Bft) E-NE 67 0 min 0 W/m 10,8 C 13,3 C 0,0 km/h (0 Bft)
28/09/2011 04:15 13,1 C 85 % 1024,6 hPa 0,0 mm 0,0 km/h (0 Bft) E-NE 67 0 min 0 W/m 10,6 C 13,1 C 0,0 km/h (0 Bft)
28/09/2011 04:20 13,1 C 85 % 1024,7 hPa 0,0 mm 0,0 km/h (0 Bft) E-NE 67 0 min 0 W/m 10,6 C 13,1 C 0,0 km/h (0 Bft)
28/09/2011 04:25 12,9 C 85 % 1024,6 hPa 0,0 mm 0,0 km/h (0 Bft) E-NE 67 0 min 0 W/m 10,4 C 12,9 C 0,0 km/h (0 Bft)
28/09/2011 04:30 12,9 C 85 % 1024,6 hPa 0,0 mm 0,0 km/h (0 Bft) NE 45 0 min 0 W/m 10,4 C 12,9 C 0,0 km/h (0 Bft)
28/09/2011 04:35 12,9 C 85 % 1024,4 hPa 0,0 mm 0,0 km/h (0 Bft) E-NE 67 0 min 0 W/m 10,4 C 12,9 C 0,0 km/h (0 Bft)
28/09/2011 04:40 12,8 C 86 % 1024,4 hPa 0,0 mm 0,0 km/h (0 Bft) E-NE 67 0 min 0 W/m 10,5 C 12,8 C 0,0 km/h (0 Bft)
28/09/2011 04:45 12,8 C 86 % 1024,4 hPa 0,0 mm 0,0 km/h (0 Bft) E-NE 67 0 min 0 W/m 10,5 C 12,8 C 0,0 km/h (0 Bft)
28/09/2011 04:50 12,8 C 86 % 1024,4 hPa 0,0 mm 0,0 km/h (0 Bft) E-NE 67 0 min 0 W/m 10,5 C 12,8 C 0,0 km/h (0 Bft)
28/09/2011 04:55 12,6 C 86 % 1024,4 hPa 0,0 mm 0,0 km/h (0 Bft) E-NE 67 0 min 0 W/m 10,3 C 12,6 C 0,0 km/h (0 Bft)
28/09/2011 05:00 12,6 C 87 % 1024,4 hPa 0,0 mm 0,0 km/h (0 Bft) E 90 0 min 0 W/m 10,5 C 12,6 C 0,0 km/h (0 Bft)
28/09/2011 05:05 12,6 C 87 % 1024,3 hPa 0,0 mm 0,0 km/h (0 Bft) E-SE 112 0 min 0 W/m 10,5 C 12,6 C 0,0 km/h (0 Bft)
28/09/2011 05:10 12,6 C 87 % 1024,3 hPa 0,0 mm 0,0 km/h (0 Bft) E 90 0 min 0 W/m 10,5 C 12,6 C 0,0 km/h (0 Bft)
28/09/2011 05:15 12,6 C 87 % 1024,2 hPa 0,0 mm 0,0 km/h (0 Bft) E 90 0 min 0 W/m 10,5 C 12,6 C 0,0 km/h (0 Bft)
28/09/2011 05:20 12,8 C 87 % 1024,2 hPa 0,0 mm 0,0 km/h (0 Bft) E 90 0 min 0 W/m 10,7 C 12,8 C 0,0 km/h (0 Bft)
28/09/2011 05:25 12,7 C 87 % 1024,2 hPa 0,0 mm 0,0 km/h (0 Bft) SE 135 0 min 0 W/m 10,6 C 12,7 C 0,0 km/h (0 Bft)
28/09/2011 05:30 12,7 C 87 % 1024,2 hPa 0,0 mm 0,0 km/h (0 Bft) E-SE 112 0 min 0 W/m 10,6 C 12,7 C 0,0 km/h (0 Bft)
28/09/2011 05:35 12,8 C 88 % 1024,2 hPa 0,0 mm 0,0 km/h (0 Bft) E-SE 112 0 min 0 W/m 10,9 C 12,8 C 0,0 km/h (0 Bft)
28/09/2011 05:40 12,8 C 88 % 1024,2 hPa 0,0 mm 0,0 km/h (0 Bft) E-SE 112 0 min 0 W/m 10,9 C 12,8 C 0,0 km/h (0 Bft)
28/09/2011 05:45 12,9 C 88 % 1024,2 hPa 0,0 mm 0,0 km/h (0 Bft) E-SE 112 0 min 0 W/m 11,0 C 12,9 C 0,0 km/h (0 Bft)
28/09/2011 05:50 12,9 C 88 % 1024,1 hPa 0,0 mm 0,0 km/h (0 Bft) E-SE 112 0 min 0 W/m 11,0 C 12,9 C 0,0 km/h (0 Bft)
28/09/2011 05:55 13,0 C 88 % 1024,2 hPa 0,0 mm 0,0 km/h (0 Bft) E 90 0 min 0 W/m 11,1 C 13,0 C 0,0 km/h (0 Bft)
28/09/2011 06:00 13,0 C 87 % 1024,1 hPa 0,0 mm 0,0 km/h (0 Bft) E-NE 67 0 min 0 W/m 10,9 C 13,0 C 0,0 km/h (0 Bft)
28/09/2011 06:05 12,9 C 87 % 1024,1 hPa 0,0 mm 0,0 km/h (0 Bft) E 90 0 min 0 W/m 10,8 C 12,9 C 0,0 km/h (0 Bft)
28/09/2011 06:10 12,9 C 88 % 1024,1 hPa 0,0 mm 0,0 km/h (0 Bft) E-SE 112 0 min 0 W/m 11,0 C 12,9 C 0,0 km/h (0 Bft)
28/09/2011 06:15 12,9 C 88 % 1024,1 hPa 0,0 mm 0,0 km/h (0 Bft) E-SE 112 0 min 0 W/m 11,0 C 12,9 C 0,0 km/h (0 Bft)
28/09/2011 06:20 12,8 C 88 % 1024,1 hPa 0,0 mm 0,0 km/h (0 Bft) E-SE 112 0 min 0 W/m 10,9 C 12,8 C 0,0 km/h (0 Bft)
28/09/2011 06:25 12,8 C 88 % 1024,0 hPa 0,0 mm 0,0 km/h (0 Bft) E-SE 112 0 min 0 W/m 10,9 C 12,8 C 0,0 km/h (0 Bft)
28/09/2011 06:30 12,6 C 87 % 1024,0 hPa 0,0 mm 0,0 km/h (0 Bft) E-SE 112 0 min 0 W/m 10,5 C 12,6 C 0,0 km/h (0 Bft)
28/09/2011 06:35 12,5 C 87 % 1024,0 hPa 0,0 mm 0,0 km/h (0 Bft) E-SE 112 0 min 0 W/m 10,4 C 12,5 C 0,0 km/h (0 Bft)
28/09/2011 06:40 12,4 C 87 % 1024,0 hPa 0,0 mm 0,0 km/h (0 Bft) E-SE 112 0 min 0 W/m 10,3 C 12,4 C 0,0 km/h (0 Bft)
28/09/2011 06:45 12,3 C 87 % 1023,9 hPa 0,0 mm 0,0 km/h (0 Bft) E-SE 112 0 min 0 W/m 10,2 C 12,3 C 0,0 km/h (0 Bft)
28/09/2011 06:50 12,2 C 87 % 1023,9 hPa 0,0 mm 0,0 km/h (0 Bft) E-SE 112 0 min 0 W/m 10,1 C 12,2 C 0,0 km/h (0 Bft)
28/09/2011 06:55 12,1 C 88 % 1023,9 hPa 0,0 mm 0,0 km/h (0 Bft) E-SE 112 0 min 0 W/m 10,2 C 12,1 C 0,0 km/h (0 Bft)
28/09/2011 07:00 11,9 C 88 % 1023,9 hPa 0,0 mm 0,0 km/h (0 Bft) E-SE 112 0 min 0 W/m 10,0 C 11,9 C 0,0 km/h (0 Bft)
28/09/2011 07:05 11,8 C 88 % 1024,0 hPa 0,0 mm 0,0 km/h (0 Bft) E-SE 112 0 min 0 W/m 9,9 C 11,8 C 0,0 km/h (0 Bft)
28/09/2011 07:10 11,8 C 88 % 1024,0 hPa 0,0 mm 0,0 km/h (0 Bft) E 90 0 min 0 W/m 9,9 C 11,8 C 0,0 km/h (0 Bft)
28/09/2011 07:15 11,8 C 88 % 1024,0 hPa 0,0 mm 0,0 km/h (0 Bft) E 90 0 min 0 W/m 9,9 C 11,8 C 0,0 km/h (0 Bft)
28/09/2011 07:20 11,8 C 88 % 1024,0 hPa 0,0 mm 0,0 km/h (0 Bft) E 90 0 min 0 W/m 9,9 C 11,8 C 0,0 km/h (0 Bft)
28/09/2011 07:25 11,8 C 88 % 1024,0 hPa 0,0 mm 0,0 km/h (0 Bft) E-NE 67 0 min 0 W/m 9,9 C 11,8 C 0,0 km/h (0 Bft)
28/09/2011 07:30 11,8 C 88 % 1023,9 hPa 0,0 mm 0,0 km/h (0 Bft) E 90 0 min 0 W/m 9,9 C 11,8 C 0,0 km/h (0 Bft)
28/09/2011 07:35 11,8 C 88 % 1023,9 hPa 0,0 mm 0,0 km/h (0 Bft) E 90 0 min 0 W/m 9,9 C 11,8 C 0,0 km/h (0 Bft)
28/09/2011 07:40 11,7 C 88 % 1024,0 hPa 0,0 mm 0,0 km/h (0 Bft) E 90 0 min 0 W/m 9,8 C 11,7 C 0,0 km/h (0 Bft)
28/09/2011 07:45 11,8 C 89 % 1023,9 hPa 0,0 mm 0,0 km/h (0 Bft) E-NE 67 0 min 0 W/m 10,0 C 11,8 C 0,0 km/h (0 Bft)
28/09/2011 07:50 11,8 C 89 % 1023,8 hPa 0,0 mm 0,0 km/h (0 Bft) E-NE 67 0 min 0 W/m 10,0 C 11,8 C 0,0 km/h (0 Bft)
28/09/2011 07:55 11,9 C 89 % 1023,8 hPa 0,0 mm 1,4 km/h (1 Bft) SE 135 0 min 0 W/m 10,1 C 11,9 C 3,2 km/h (1 Bft)
28/09/2011 08:00 12,1 C 89 % 1023,9 hPa 0,0 mm 0,4 km/h (0 Bft) NE 45 2 min 0 W/m 10,3 C 12,1 C 0,4 km/h (0 Bft)
28/09/2011 08:05 12,2 C 89 % 1023,9 hPa 0,0 mm 0,4 km/h (0 Bft) N 360 2 min 0 W/m 10,4 C 12,2 C 0,4 km/h (0 Bft)
28/09/2011 08:10 12,4 C 90 % 1023,9 hPa 0,0 mm 0,4 km/h (0 Bft) N 360 2 min 0 W/m 10,8 C 12,4 C 0,4 km/h (0 Bft)
28/09/2011 08:15 12,6 C 90 % 1023,9 hPa 0,0 mm 4,0 km/h (1 Bft) E-NE 67 2 min 0 W/m 11,0 C 12,6 C 6,1 km/h (2 Bft)
28/09/2011 08:20 12,7 C 90 % 1023,9 hPa 0,0 mm 1,8 km/h (1 Bft) SE 135 2 min 0 W/m 11,1 C 12,7 C 3,2 km/h (1 Bft)
28/09/2011 08:25 12,8 C 90 % 1023,9 hPa 0,0 mm 0,0 km/h (0 Bft) E-SE 112 2 min 0 W/m 11,2 C 12,8 C 0,0 km/h (0 Bft)
28/09/2011 08:30 12,9 C 90 % 1024,0 hPa 0,0 mm 0,4 km/h (0 Bft) E-SE 112 2 min 0 W/m 11,3 C 12,9 C 0,4 km/h (0 Bft)
28/09/2011 08:35 13,1 C 90 % 1024,1 hPa 0,0 mm 0,0 km/h (0 Bft) SE 135 0 min 0 W/m 11,5 C 13,1 C 0,0 km/h (0 Bft)
28/09/2011 08:40 13,1 C 90 % 1024,1 hPa 0,0 mm 0,7 km/h (0 Bft) E-SE 112 2 min 0 W/m 11,5 C 13,1 C 4,3 km/h (1 Bft)
28/09/2011 08:45 13,2 C 90 % 1024,0 hPa 0,0 mm 0,4 km/h (0 Bft) E-SE 112 0 min 0 W/m 11,6 C 13,2 C 3,2 km/h (1 Bft)
28/09/2011 08:50 13,4 C 90 % 1023,9 hPa 0,0 mm 0,0 km/h (0 Bft) E 90 0 min 0 W/m 11,8 C 13,4 C 0,0 km/h (0 Bft)
28/09/2011 08:55 13,6 C 90 % 1024,0 hPa 0,0 mm 0,0 km/h (0 Bft) E-SE 112 0 min 0 W/m 12,0 C 13,6 C 4,0 km/h (1 Bft)
28/09/2011 09:00 13,9 C 90 % 1023,9 hPa 0,0 mm 1,1 km/h (1 Bft) E 90 0 min 0 W/m 12,3 C 13,9 C 2,9 km/h (1 Bft)
28/09/2011 09:05 14,3 C 90 % 1024,0 hPa 0,0 mm 0,0 km/h (0 Bft) E 90 0 min 0 W/m 12,7 C 14,3 C 0,0 km/h (0 Bft)
28/09/2011 09:10 14,5 C 90 % 1024,0 hPa 0,0 mm 0,0 km/h (0 Bft) E-SE 112 0 min 0 W/m 12,9 C 14,5 C 0,0 km/h (0 Bft)
28/09/2011 09:15 14,8 C 90 % 1024,0 hPa 0,0 mm 0,4 km/h (0 Bft) SE 135 0 min 0 W/m 13,2 C 14,8 C 3,6 km/h (1 Bft)
28/09/2011 09:20 15,1 C 90 % 1023,9 hPa 0,0 mm 0,0 km/h (0 Bft) E-SE 112 0 min 0 W/m 13,5 C 15,1 C 0,0 km/h (0 Bft)
28/09/2011 09:25 15,4 C 90 % 1023,8 hPa 0,0 mm 1,4 km/h (1 Bft) E-SE 112 0 min 0 W/m 13,8 C 15,4 C 2,9 km/h (1 Bft)
28/09/2011 09:30 15,7 C 89 % 1023,9 hPa 0,0 mm 2,2 km/h (1 Bft) E 90 0 min 0 W/m 13,9 C 15,7 C 3,6 km/h (1 Bft)
28/09/2011 09:35 15,9 C 88 % 1023,9 hPa 0,0 mm 0,0 km/h (0 Bft) E-SE 112 0 min 0 W/m 13,9 C 15,9 C 0,0 km/h (0 Bft)
28/09/2011 09:40 16,2 C 87 % 1023,9 hPa 0,0 mm 0,7 km/h (0 Bft) SE 135 0 min 0 W/m 14,0 C 16,2 C 3,2 km/h (1 Bft)
28/09/2011 09:45 16,6 C 87 % 1024,0 hPa 0,0 mm 0,4 km/h (0 Bft) E-SE 112 0 min 0 W/m 14,4 C 16,6 C 0,4 km/h (0 Bft)
28/09/2011 09:50 16,8 C 86 % 1024,0 hPa 0,0 mm 0,7 km/h (0 Bft) E-SE 112 0 min 0 W/m 14,4 C 16,8 C 3,6 km/h (1 Bft)
28/09/2011 09:55 17,2 C 85 % 1024,0 hPa 0,0 mm 0,0 km/h (0 Bft) E-NE 67 0 min 0 W/m 14,7 C 17,2 C 0,0 km/h (0 Bft)
28/09/2011 10:00 17,6 C 84 % 1024,1 hPa 0,0 mm 0,0 km/h (0 Bft) SE 135 0 min 0 W/m 14,9 C 17,6 C 0,0 km/h (0 Bft)
28/09/2011 10:05 17,9 C 82 % 1024,1 hPa 0,0 mm 0,0 km/h (0 Bft) E 90 0 min 0 W/m 14,8 C 17,9 C 0,0 km/h (0 Bft)
28/09/2011 10:10 18,4 C 82 % 1024,2 hPa 0,0 mm 0,0 km/h (0 Bft) E 90 0 min 0 W/m 15,3 C 18,4 C 0,0 km/h (0 Bft)
28/09/2011 10:15 18,8 C 81 % 1024,3 hPa 0,0 mm 0,0 km/h (0 Bft) E 90 0 min 0 W/m 15,5 C 18,8 C 0,0 km/h (0 Bft)
28/09/2011 10:20 19,3 C 79 % 1024,3 hPa 0,0 mm 0,0 km/h (0 Bft) E 90 0 min 0 W/m 15,6 C 19,3 C 0,0 km/h (0 Bft)
28/09/2011 10:25 19,6 C 77 % 1024,3 hPa 0,0 mm 2,9 km/h (1 Bft) SE 135 0 min 0 W/m 15,5 C 19,6 C 4,3 km/h (1 Bft)
28/09/2011 10:30 19,8 C 76 % 1024,3 hPa 0,0 mm 0,4 km/h (0 Bft) SE 135 0 min 0 W/m 15,4 C 19,8 C 0,4 km/h (0 Bft)
28/09/2011 10:35 20,3 C 75 % 1024,3 hPa 0,0 mm 0,0 km/h (0 Bft) SE 135 0 min 0 W/m 15,7 C 20,3 C 0,0 km/h (0 Bft)
28/09/2011 10:40 20,8 C 74 % 1024,3 hPa 0,0 mm 0,0 km/h (0 Bft) E-NE 67 0 min 0 W/m 16,0 C 20,8 C 0,0 km/h (0 Bft)
28/09/2011 10:45 21,3 C 72 % 1024,3 hPa 0,0 mm 1,8 km/h (1 Bft) E-SE 112 0 min 0 W/m 16,0 C 21,3 C 4,0 km/h (1 Bft)
28/09/2011 10:50 21,6 C 71 % 1024,4 hPa 0,0 mm 1,8 km/h (1 Bft) E-SE 112 0 min 0 W/m 16,1 C 21,6 C 3,6 km/h (1 Bft)
28/09/2011 10:55 21,9 C 71 % 1024,4 hPa 0,0 mm 1,1 km/h (1 Bft) E 90 0 min 0 W/m 16,4 C 21,9 C 4,0 km/h (1 Bft)
28/09/2011 11:00 22,3 C 69 % 1024,5 hPa 0,0 mm 0,7 km/h (0 Bft) SE 135 0 min 0 W/m 16,3 C 22,3 C 0,7 km/h (0 Bft)
28/09/2011 11:05 22,7 C 68 % 1024,4 hPa 0,0 mm 0,4 km/h (0 Bft) E 90 0 min 0 W/m 16,5 C 22,7 C 3,2 km/h (1 Bft)
28/09/2011 11:10 23,1 C 67 % 1024,3 hPa 0,0 mm 0,4 km/h (0 Bft) E-SE 112 0 min 0 W/m 16,6 C 23,1 C 3,2 km/h (1 Bft)
28/09/2011 11:15 23,5 C 66 % 1024,4 hPa 0,0 mm 3,6 km/h (1 Bft) SE 135 0 min 0 W/m 16,8 C 23,5 C 5,8 km/h (2 Bft)
28/09/2011 11:20 23,9 C 64 % 1024,4 hPa 0,0 mm 0,0 km/h (0 Bft) E-SE 112 0 min 0 W/m 16,7 C 23,9 C 0,0 km/h (0 Bft)
28/09/2011 11:25 24,1 C 64 % 1024,4 hPa 0,0 mm 4,7 km/h (1 Bft) E 90 0 min 0 W/m 16,9 C 24,1 C 8,3 km/h (2 Bft)
28/09/2011 11:30 24,3 C 62 % 1024,4 hPa 0,0 mm 2,9 km/h (1 Bft) SE 135 0 min 0 W/m 16,5 C 24,3 C 3,6 km/h (1 Bft)
28/09/2011 11:35 24,5 C 61 % 1024,4 hPa 0,0 mm 2,2 km/h (1 Bft) E-SE 112 0 min 0 W/m 16,5 C 24,5 C 3,2 km/h (1 Bft)
28/09/2011 11:40 24,8 C 61 % 1024,4 hPa 0,0 mm 0,0 km/h (0 Bft) E 90 0 min 0 W/m 16,8 C 24,8 C 0,0 km/h (0 Bft)
28/09/2011 11:45 25,2 C 61 % 1024,4 hPa 0,0 mm 0,7 km/h (0 Bft) E-SE 112 0 min 0 W/m 17,1 C 25,2 C 4,0 km/h (1 Bft)
28/09/2011 11:50 25,8 C 60 % 1024,4 hPa 0,0 mm 0,0 km/h (0 Bft) SE 135 0 min 0 W/m 17,4 C 25,8 C 0,0 km/h (0 Bft)
28/09/2011 11:55 26,1 C 60 % 1024,4 hPa 0,0 mm 0,4 km/h (0 Bft) E-SE 112 0 min 0 W/m 17,7 C 26,1 C 4,3 km/h (1 Bft)
28/09/2011 12:00 26,5 C 58 % 1024,4 hPa 0,0 mm 0,0 km/h (0 Bft) E 90 0 min 0 W/m 17,5 C 26,5 C 0,0 km/h (0 Bft)
28/09/2011 12:05 26,9 C 58 % 1024,4 hPa 0,0 mm 0,7 km/h (0 Bft) E-SE 112 0 min 0 W/m 17,9 C 26,9 C 0,7 km/h (0 Bft)
28/09/2011 12:10 27,1 C 57 % 1024,3 hPa 0,0 mm 0,7 km/h (0 Bft) E-SE 112 0 min 0 W/m 17,8 C 27,1 C 4,0 km/h (1 Bft)
28/09/2011 12:15 27,4 C 55 % 1024,6 hPa 0,0 mm 0,0 km/h (0 Bft) E-NE 67 0 min 0 W/m 17,5 C 27,4 C 0,0 km/h (0 Bft)
28/09/2011 12:20 27,8 C 54 % 1024,6 hPa 0,0 mm 1,4 km/h (1 Bft) E-NE 67 0 min 0 W/m 17,6 C 27,8 C 1,4 km/h (1 Bft)
28/09/2011 12:25 28,1 C 54 % 1024,5 hPa 0,0 mm 0,0 km/h (0 Bft) E-NE 67 0 min 0 W/m 17,9 C 28,1 C 0,0 km/h (0 Bft)
28/09/2011 12:30 28,5 C 53 % 1024,4 hPa 0,0 mm 0,4 km/h (0 Bft) S 180 0 min 0 W/m 18,0 C 28,5 C 3,2 km/h (1 Bft)
28/09/2011 12:35 28,8 C 51 % 1024,4 hPa 0,0 mm 0,0 km/h (0 Bft) S-SO 202 0 min 0 W/m 17,6 C 28,8 C 0,0 km/h (0 Bft)
28/09/2011 12:40 29,2 C 52 % 1024,3 hPa 0,0 mm 0,0 km/h (0 Bft) N 360 0 min 0 W/m 18,3 C 29,2 C 0,0 km/h (0 Bft)
28/09/2011 12:45 29,3 C 52 % 1024,3 hPa 0,0 mm 0,0 km/h (0 Bft) E-NE 67 0 min 0 W/m 18,4 C 29,3 C 0,0 km/h (0 Bft)
28/09/2011 12:50 29,4 C 51 % 1024,3 hPa 0,0 mm 0,0 km/h (0 Bft) S 180 0 min 0 W/m 18,2 C 29,4 C 0,0 km/h (0 Bft)
28/09/2011 12:55 29,6 C 51 % 1024,2 hPa 0,0 mm 0,0 km/h (0 Bft) S 180 0 min 0 W/m 18,4 C 29,6 C 0,0 km/h (0 Bft)
28/09/2011 13:00 29,8 C 49 % 1024,2 hPa 0,0 mm 0,0 km/h (0 Bft) S 180 0 min 0 W/m 17,9 C 29,8 C 0,0 km/h (0 Bft)
28/09/2011 13:05 30,2 C 49 % 1024,2 hPa 0,0 mm 0,0 km/h (0 Bft) S 180 0 min 0 W/m 18,3 C 30,2 C 0,0 km/h (0 Bft)
28/09/2011 13:10 30,3 C 48 % 1024,2 hPa 0,0 mm 0,0 km/h (0 Bft) S-SE 157 0 min 0 W/m 18,0 C 30,3 C 0,0 km/h (0 Bft)
28/09/2011 13:15 30,3 C 48 % 1024,1 hPa 0,0 mm 0,0 km/h (0 Bft) E-SE 112 0 min 0 W/m 18,0 C 30,3 C 0,0 km/h (0 Bft)
28/09/2011 13:20 30,3 C 49 % 1024,2 hPa 0,0 mm 1,8 km/h (1 Bft) E 90 0 min 0 W/m 18,4 C 30,3 C 4,0 km/h (1 Bft)
28/09/2011 13:25 30,3 C 47 % 1024,2 hPa 0,0 mm 0,4 km/h (0 Bft) E 90 0 min 0 W/m 17,7 C 30,3 C 3,2 km/h (1 Bft)
28/09/2011 13:30 30,3 C 47 % 1024,1 hPa 0,0 mm 0,0 km/h (0 Bft) E-NE 67 0 min 0 W/m 17,7 C 30,3 C 0,0 km/h (0 Bft)
28/09/2011 13:35 30,4 C 48 % 1024,2 hPa 0,0 mm 1,1 km/h (1 Bft) E 90 0 min 0 W/m 18,1 C 30,4 C 4,3 km/h (1 Bft)
28/09/2011 13:40 30,3 C 47 % 1024,2 hPa 0,0 mm 0,0 km/h (0 Bft) E-NE 67 0 min 0 W/m 17,7 C 30,3 C 3,2 km/h (1 Bft)
28/09/2011 13:45 30,4 C 47 % 1024,2 hPa 0,0 mm 0,7 km/h (0 Bft) N-NE 22 0 min 0 W/m 17,8 C 30,4 C 0,7 km/h (0 Bft)
28/09/2011 13:50 30,5 C 47 % 1024,3 hPa 0,0 mm 1,1 km/h (1 Bft) N-NE 22 0 min 0 W/m 17,9 C 30,5 C 4,0 km/h (1 Bft)
28/09/2011 13:55 30,6 C 46 % 1024,2 hPa 0,0 mm 0,7 km/h (0 Bft) NE 45 0 min 0 W/m 17,6 C 30,6 C 4,3 km/h (1 Bft)
28/09/2011 14:00 30,5 C 47 % 1024,1 hPa 0,0 mm 2,2 km/h (1 Bft) E 90 0 min 0 W/m 17,9 C 30,5 C 4,3 km/h (1 Bft)
28/09/2011 14:05 30,2 C 46 % 1024,2 hPa 0,0 mm 2,2 km/h (1 Bft) NE 45 0 min 0 W/m 17,3 C 30,2 C 4,3 km/h (1 Bft)
28/09/2011 14:10 30,3 C 47 % 1024,2 hPa 0,0 mm 0,4 km/h (0 Bft) NE 45 0 min 0 W/m 17,7 C 30,3 C 3,2 km/h (1 Bft)
28/09/2011 14:15 30,3 C 45 % 1024,0 hPa 0,0 mm 0,0 km/h (0 Bft) E 90 0 min 0 W/m 17,0 C 30,3 C 3,2 km/h (1 Bft)
28/09/2011 14:20 30,3 C 44 % 1024,0 hPa 0,0 mm 0,4 km/h (0 Bft) NE 45 0 min 0 W/m 16,7 C 30,3 C 0,4 km/h (0 Bft)
28/09/2011 14:25 30,2 C 45 % 1023,9 hPa 0,0 mm 0,0 km/h (0 Bft) E-SE 112 0 min 0 W/m 16,9 C 30,2 C 0,0 km/h (0 Bft)
28/09/2011 14:30 30,2 C 46 % 1024,0 hPa 0,0 mm 1,1 km/h (1 Bft) SE 135 0 min 0 W/m 17,3 C 30,2 C 1,1 km/h (1 Bft)
28/09/2011 14:35 30,1 C 45 % 1024,0 hPa 0,0 mm 1,1 km/h (1 Bft) NE 45 0 min 0 W/m 16,8 C 30,1 C 3,6 km/h (1 Bft)
28/09/2011 14:40 30,1 C 45 % 1024,0 hPa 0,0 mm 0,0 km/h (0 Bft) E-NE 67 0 min 0 W/m 16,8 C 30,1 C 0,0 km/h (0 Bft)
28/09/2011 14:45 30,2 C 45 % 1023,9 hPa 0,0 mm 0,4 km/h (0 Bft) E-NE 67 0 min 0 W/m 16,9 C 30,2 C 3,6 km/h (1 Bft)
28/09/2011 14:50 30,3 C 44 % 1023,8 hPa 0,0 mm 0,0 km/h (0 Bft) E-NE 67 0 min 0 W/m 16,7 C 30,3 C 0,0 km/h (0 Bft)
28/09/2011 14:55 30,2 C 44 % 1023,7 hPa 0,0 mm 3,6 km/h (1 Bft) E-SE 112 0 min 0 W/m 16,6 C 30,2 C 3,6 km/h (1 Bft)
28/09/2011 15:00 30,0 C 44 % 1023,5 hPa 0,0 mm 0,4 km/h (0 Bft) SE 135 0 min 0 W/m 16,4 C 30,0 C 3,2 km/h (1 Bft)
28/09/2011 15:05 29,8 C 43 % 1023,4 hPa 0,0 mm 0,0 km/h (0 Bft) SE 135 0 min 0 W/m 15,8 C 29,8 C 0,0 km/h (0 Bft)
28/09/2011 15:10 29,9 C 44 % 1023,3 hPa 0,0 mm 1,1 km/h (1 Bft) NE 45 0 min 0 W/m 16,3 C 29,9 C 3,2 km/h (1 Bft)
28/09/2011 15:15 30,0 C 43 % 1023,3 hPa 0,0 mm 2,9 km/h (1 Bft) N 360 0 min 0 W/m 16,0 C 30,0 C 4,0 km/h (1 Bft)
28/09/2011 15:20 30,0 C 44 % 1023,2 hPa 0,0 mm 0,0 km/h (0 Bft) E-NE 67 0 min 0 W/m 16,4 C 30,0 C 3,2 km/h (1 Bft)
28/09/2011 15:25 29,9 C 45 % 1023,2 hPa 0,0 mm 0,0 km/h (0 Bft) E-SE 112 0 min 0 W/m 16,7 C 29,9 C 0,0 km/h (0 Bft)
28/09/2011 15:30 29,9 C 44 % 1023,2 hPa 0,0 mm 0,0 km/h (0 Bft) E-NE 67 0 min 0 W/m 16,3 C 29,9 C 2,9 km/h (1 Bft)
28/09/2011 15:35 29,9 C 43 % 1023,1 hPa 0,0 mm 0,7 km/h (0 Bft) E-NE 67 0 min 0 W/m 15,9 C 29,9 C 2,9 km/h (1 Bft)
28/09/2011 15:40 29,9 C 44 % 1023,1 hPa 0,0 mm 0,0 km/h (0 Bft) SE 135 0 min 0 W/m 16,3 C 29,9 C 0,0 km/h (0 Bft)
28/09/2011 15:45 29,9 C 44 % 1023,2 hPa 0,0 mm 0,0 km/h (0 Bft) NE 45 0 min 0 W/m 16,3 C 29,9 C 0,0 km/h (0 Bft)
28/09/2011 15:50 29,8 C 44 % 1023,1 hPa 0,0 mm 0,0 km/h (0 Bft) SE 135 0 min 0 W/m 16,2 C 29,8 C 0,0 km/h (0 Bft)
28/09/2011 15:55 29,8 C 44 % 1023,1 hPa 0,0 mm 0,7 km/h (0 Bft) NE 45 0 min 0 W/m 16,2 C 29,8 C 4,0 km/h (1 Bft)
28/09/2011 16:00 29,8 C 43 % 1023,0 hPa 0,0 mm 0,4 km/h (0 Bft) N-NE 22 0 min 0 W/m 15,8 C 29,8 C 3,6 km/h (1 Bft)
28/09/2011 16:05 29,8 C 43 % 1023,0 hPa 0,0 mm 0,7 km/h (0 Bft) E-NE 67 0 min 0 W/m 15,8 C 29,8 C 0,7 km/h (0 Bft)
28/09/2011 16:10 29,7 C 44 % 1023,1 hPa 0,0 mm 0,0 km/h (0 Bft) E-NE 67 0 min 0 W/m 16,1 C 29,7 C 0,0 km/h (0 Bft)
28/09/2011 16:15 29,6 C 43 % 1023,0 hPa 0,0 mm 1,8 km/h (1 Bft) S-SO 202 0 min 0 W/m 15,7 C 29,6 C 3,6 km/h (1 Bft)
28/09/2011 16:20 29,4 C 43 % 1022,9 hPa 0,0 mm 0,4 km/h (0 Bft) E-SE 112 0 min 0 W/m 15,5 C 29,4 C 0,4 km/h (0 Bft)
28/09/2011 16:25 29,3 C 42 % 1022,8 hPa 0,0 mm 0,0 km/h (0 Bft) E-SE 112 0 min 0 W/m 15,0 C 29,3 C 0,0 km/h (0 Bft)
28/09/2011 16:30 29,3 C 43 % 1022,8 hPa 0,0 mm 1,4 km/h (1 Bft) E-NE 67 0 min 0 W/m 15,4 C 29,3 C 6,1 km/h (2 Bft)
28/09/2011 16:35 29,3 C 43 % 1022,8 hPa 0,0 mm 0,0 km/h (0 Bft) E-SE 112 0 min 0 W/m 15,4 C 29,3 C 2,9 km/h (1 Bft)
28/09/2011 16:40 29,3 C 42 % 1022,8 hPa 0,0 mm 0,4 km/h (0 Bft) E-SE 112 0 min 0 W/m 15,0 C 29,3 C 4,0 km/h (1 Bft)
28/09/2011 16:45 29,3 C 42 % 1022,7 hPa 0,0 mm 0,7 km/h (0 Bft) E-SE 112 0 min 0 W/m 15,0 C 29,3 C 3,6 km/h (1 Bft)
28/09/2011 16:50 29,2 C 42 % 1022,7 hPa 0,0 mm 0,0 km/h (0 Bft) E-SE 112 0 min 0 W/m 14,9 C 29,2 C 0,0 km/h (0 Bft)
28/09/2011 16:55 29,2 C 43 % 1022,7 hPa 0,0 mm 1,4 km/h (1 Bft) E 90 0 min 0 W/m 15,3 C 29,2 C 2,9 km/h (1 Bft)
28/09/2011 17:00 29,1 C 42 % 1022,7 hPa 0,0 mm 3,2 km/h (1 Bft) SE 135 0 min 0 W/m 14,9 C 29,1 C 4,3 km/h (1 Bft)
28/09/2011 17:05 28,9 C 42 % 1022,6 hPa 0,0 mm 0,0 km/h (0 Bft) E 90 0 min 0 W/m 14,7 C 28,9 C 0,0 km/h (0 Bft)
28/09/2011 17:10 28,9 C 43 % 1022,6 hPa 0,0 mm 0,4 km/h (0 Bft) E-NE 67 0 min 0 W/m 15,0 C 28,9 C 3,2 km/h (1 Bft)
28/09/2011 17:15 28,9 C 43 % 1022,6 hPa 0,0 mm 0,4 km/h (0 Bft) E-NE 67 0 min 0 W/m 15,0 C 28,9 C 0,4 km/h (0 Bft)
28/09/2011 17:20 28,8 C 43 % 1022,6 hPa 0,0 mm 0,0 km/h (0 Bft) E-NE 67 0 min 0 W/m 15,0 C 28,8 C 0,0 km/h (0 Bft)
28/09/2011 17:25 28,8 C 43 % 1022,5 hPa 0,0 mm 0,0 km/h (0 Bft) E-NE 67 0 min 0 W/m 15,0 C 28,8 C 0,0 km/h (0 Bft)
28/09/2011 17:30 28,8 C 43 % 1022,5 hPa 0,0 mm 0,0 km/h (0 Bft) E-NE 67 0 min 0 W/m 15,0 C 28,8 C 0,0 km/h (0 Bft)
28/09/2011 17:35 28,7 C 43 % 1022,5 hPa 0,0 mm 2,5 km/h (1 Bft) E-NE 67 0 min 0 W/m 14,9 C 28,7 C 6,8 km/h (2 Bft)
28/09/2011 17:40 28,6 C 43 % 1022,5 hPa 0,0 mm 0,0 km/h (0 Bft) E-NE 67 0 min 0 W/m 14,8 C 28,6 C 0,0 km/h (0 Bft)
28/09/2011 17:45 28,5 C 43 % 1022,5 hPa 0,0 mm 0,4 km/h (0 Bft) E-SE 112 0 min 0 W/m 14,7 C 28,5 C 0,4 km/h (0 Bft)
28/09/2011 17:50 28,3 C 43 % 1022,5 hPa 0,0 mm 0,0 km/h (0 Bft) SE 135 0 min 0 W/m 14,5 C 28,3 C 0,0 km/h (0 Bft)
28/09/2011 17:55 28,2 C 44 % 1022,4 hPa 0,0 mm 3,6 km/h (1 Bft) E-SE 112 0 min 0 W/m 14,8 C 28,2 C 4,3 km/h (1 Bft)
28/09/2011 18:00 28,1 C 45 % 1022,4 hPa 0,0 mm 1,1 km/h (1 Bft) E 90 0 min 0 W/m 15,0 C 28,1 C 1,4 km/h (1 Bft)
28/09/2011 18:05 28,0 C 45 % 1022,4 hPa 0,0 mm 0,0 km/h (0 Bft) E 90 0 min 0 W/m 14,9 C 28,0 C 0,0 km/h (0 Bft)
28/09/2011 18:10 27,9 C 45 % 1022,4 hPa 0,0 mm 0,0 km/h (0 Bft) E 90 0 min 0 W/m 14,8 C 27,9 C 0,0 km/h (0 Bft)
28/09/2011 18:15 27,9 C 45 % 1022,4 hPa 0,0 mm 0,0 km/h (0 Bft) E 90 0 min 0 W/m 14,8 C 27,9 C 0,0 km/h (0 Bft)
28/09/2011 18:20 27,9 C 45 % 1022,4 hPa 0,0 mm 0,0 km/h (0 Bft) N 360 0 min 0 W/m 14,8 C 27,9 C 0,0 km/h (0 Bft)
28/09/2011 18:25 27,9 C 45 % 1022,5 hPa 0,0 mm 0,0 km/h (0 Bft) E 90 0 min 0 W/m 14,8 C 27,9 C 0,0 km/h (0 Bft)
28/09/2011 18:30 27,8 C 45 % 1022,4 hPa 0,0 mm 0,0 km/h (0 Bft) E 90 0 min 0 W/m 14,8 C 27,8 C 0,0 km/h (0 Bft)
28/09/2011 18:35 27,8 C 46 % 1022,4 hPa 0,0 mm 0,0 km/h (0 Bft) E 90 0 min 0 W/m 15,1 C 27,8 C 0,0 km/h (0 Bft)
28/09/2011 18:40 27,6 C 46 % 1022,4 hPa 0,0 mm 0,0 km/h (0 Bft) E 90 0 min 0 W/m 14,9 C 27,6 C 0,0 km/h (0 Bft)
28/09/2011 18:45 27,5 C 46 % 1022,4 hPa 0,0 mm 0,0 km/h (0 Bft) E 90 0 min 0 W/m 14,8 C 27,5 C 0,0 km/h (0 Bft)
28/09/2011 18:50 27,5 C 46 % 1022,4 hPa 0,0 mm 0,0 km/h (0 Bft) E 90 0 min 0 W/m 14,8 C 27,5 C 0,0 km/h (0 Bft)
28/09/2011 18:55 27,4 C 46 % 1022,4 hPa 0,0 mm 0,0 km/h (0 Bft) E 90 0 min 0 W/m 14,7 C 27,4 C 0,0 km/h (0 Bft)
28/09/2011 19:00 27,2 C 46 % 1022,4 hPa 0,0 mm 0,0 km/h (0 Bft) E 90 0 min 0 W/m 14,6 C 27,2 C 0,0 km/h (0 Bft)
28/09/2011 19:05 26,9 C 47 % 1022,4 hPa 0,0 mm 0,0 km/h (0 Bft) E 90 0 min 0 W/m 14,6 C 26,9 C 0,0 km/h (0 Bft)
28/09/2011 19:10 26,8 C 47 % 1022,4 hPa 0,0 mm 0,0 km/h (0 Bft) E 90 0 min 0 W/m 14,5 C 26,8 C 0,0 km/h (0 Bft)
28/09/2011 19:15 26,5 C 48 % 1022,4 hPa 0,0 mm 0,0 km/h (0 Bft) E 90 0 min 0 W/m 14,6 C 26,5 C 0,0 km/h (0 Bft)
28/09/2011 19:20 26,2 C 48 % 1022,4 hPa 0,0 mm 0,0 km/h (0 Bft) E 90 0 min 0 W/m 14,3 C 26,2 C 0,0 km/h (0 Bft)
28/09/2011 19:25 25,8 C 49 % 1022,4 hPa 0,0 mm 0,0 km/h (0 Bft) E 90 0 min 0 W/m 14,3 C 25,8 C 0,0 km/h (0 Bft)
28/09/2011 19:30 25,5 C 49 % 1022,5 hPa 0,0 mm 0,0 km/h (0 Bft) E 90 0 min 0 W/m 14,0 C 25,5 C 0,0 km/h (0 Bft)
28/09/2011 19:35 25,1 C 50 % 1022,4 hPa 0,0 mm 0,0 km/h (0 Bft) E 90 0 min 0 W/m 13,9 C 25,1 C 0,0 km/h (0 Bft)
28/09/2011 19:40 24,8 C 50 % 1022,4 hPa 0,0 mm 0,0 km/h (0 Bft) E 90 0 min 0 W/m 13,7 C 24,8 C 0,0 km/h (0 Bft)
28/09/2011 19:45 24,4 C 51 % 1022,4 hPa 0,0 mm 0,0 km/h (0 Bft) E 90 0 min 0 W/m 13,6 C 24,4 C 0,0 km/h (0 Bft)
28/09/2011 19:50 24,0 C 52 % 1022,5 hPa 0,0 mm 0,0 km/h (0 Bft) E 90 0 min 0 W/m 13,5 C 24,0 C 0,0 km/h (0 Bft)
28/09/2011 19:55 23,7 C 53 % 1022,4 hPa 0,0 mm 0,0 km/h (0 Bft) E 90 0 min 0 W/m 13,5 C 23,7 C 0,0 km/h (0 Bft)
28/09/2011 20:00 23,3 C 53 % 1022,4 hPa 0,0 mm 0,0 km/h (0 Bft) E 90 0 min 0 W/m 13,2 C 23,3 C 0,0 km/h (0 Bft)
28/09/2011 20:05 22,9 C 54 % 1022,5 hPa 0,0 mm 0,0 km/h (0 Bft) E 90 0 min 0 W/m 13,1 C 22,9 C 0,0 km/h (0 Bft)
28/09/2011 20:10 22,6 C 55 % 1022,6 hPa 0,0 mm 0,0 km/h (0 Bft) E 90 0 min 0 W/m 13,1 C 22,6 C 0,0 km/h (0 Bft)
28/09/2011 20:15 22,3 C 56 % 1022,5 hPa 0,0 mm 0,0 km/h (0 Bft) E 90 0 min 0 W/m 13,1 C 22,3 C 0,0 km/h (0 Bft)
28/09/2011 20:20 21,9 C 57 % 1022,6 hPa 0,0 mm 0,0 km/h (0 Bft) E 90 0 min 0 W/m 13,0 C 21,9 C 0,0 km/h (0 Bft)
28/09/2011 20:25 21,6 C 57 % 1022,6 hPa 0,0 mm 0,0 km/h (0 Bft) E 90 0 min 0 W/m 12,7 C 21,6 C 0,0 km/h (0 Bft)
28/09/2011 20:30 21,3 C 58 % 1022,7 hPa 0,0 mm 0,0 km/h (0 Bft) E 90 0 min 0 W/m 12,7 C 21,3 C 0,0 km/h (0 Bft)
28/09/2011 20:35 21,1 C 58 % 1022,7 hPa 0,0 mm 0,0 km/h (0 Bft) E 90 0 min 0 W/m 12,5 C 21,1 C 0,0 km/h (0 Bft)
28/09/2011 20:40 20,8 C 59 % 1022,7 hPa 0,0 mm 0,0 km/h (0 Bft) E 90 0 min 0 W/m 12,5 C 20,8 C 0,0 km/h (0 Bft)
28/09/2011 20:45 20,5 C 60 % 1022,8 hPa 0,0 mm 0,0 km/h (0 Bft) E 90 0 min 0 W/m 12,5 C 20,5 C 0,0 km/h (0 Bft)
28/09/2011 20:50 20,3 C 61 % 1022,7 hPa 0,0 mm 0,0 km/h (0 Bft) E 90 0 min 0 W/m 12,5 C 20,3 C 0,0 km/h (0 Bft)
28/09/2011 20:55 20,1 C 62 % 1022,7 hPa 0,0 mm 0,0 km/h (0 Bft) E 90 0 min 0 W/m 12,6 C 20,1 C 0,0 km/h (0 Bft)
28/09/2011 21:00 19,8 C 63 % 1022,8 hPa 0,0 mm 0,0 km/h (0 Bft) E 90 0 min 0 W/m 12,5 C 19,8 C 0,0 km/h (0 Bft)
28/09/2011 21:05 19,6 C 63 % 1022,8 hPa 0,0 mm 0,0 km/h (0 Bft) E 90 0 min 0 W/m 12,4 C 19,6 C 0,0 km/h (0 Bft)
28/09/2011 21:10 19,4 C 64 % 1022,8 hPa 0,0 mm 0,0 km/h (0 Bft) E 90 0 min 0 W/m 12,4 C 19,4 C 0,0 km/h (0 Bft)
28/09/2011 21:15 19,3 C 65 % 1022,8 hPa 0,0 mm 0,0 km/h (0 Bft) E 90 0 min 0 W/m 12,6 C 19,3 C 0,0 km/h (0 Bft)
28/09/2011 21:20 19,3 C 66 % 1022,9 hPa 0,0 mm 0,0 km/h (0 Bft) E-SE 112 0 min 0 W/m 12,8 C 19,3 C 0,0 km/h (0 Bft)
28/09/2011 21:25 19,3 C 66 % 1022,9 hPa 0,0 mm 0,0 km/h (0 Bft) E-SE 112 0 min 0 W/m 12,8 C 19,3 C 0,0 km/h (0 Bft)
28/09/2011 21:30 19,3 C 67 % 1022,9 hPa 0,0 mm 0,0 km/h (0 Bft) E-NE 67 0 min 0 W/m 13,0 C 19,3 C 0,0 km/h (0 Bft)
28/09/2011 21:35 19,3 C 67 % 1022,9 hPa 0,0 mm 0,0 km/h (0 Bft) E-SE 112 0 min 0 W/m 13,0 C 19,3 C 0,0 km/h (0 Bft)
28/09/2011 21:40 19,3 C 67 % 1022,9 hPa 0,0 mm 0,0 km/h (0 Bft) N 360 0 min 0 W/m 13,0 C 19,3 C 0,0 km/h (0 Bft)
28/09/2011 21:45 19,3 C 68 % 1023,0 hPa 0,0 mm 0,0 km/h (0 Bft) E-SE 112 0 min 0 W/m 13,2 C 19,3 C 0,0 km/h (0 Bft)
28/09/2011 21:50 19,3 C 69 % 1023,1 hPa 0,0 mm 0,7 km/h (0 Bft) E 90 0 min 0 W/m 13,5 C 19,3 C 2,9 km/h (1 Bft)
28/09/2011 21:55 19,3 C 69 % 1023,1 hPa 0,0 mm 0,0 km/h (0 Bft) E-SE 112 0 min 0 W/m 13,5 C 19,3 C 0,0 km/h (0 Bft)
28/09/2011 22:00 19,2 C 69 % 1023,1 hPa 0,0 mm 0,4 km/h (0 Bft) E 90 0 min 0 W/m 13,4 C 19,2 C 3,6 km/h (1 Bft)
28/09/2011 22:05 19,1 C 70 % 1023,1 hPa 0,0 mm 0,0 km/h (0 Bft) E-SE 112 0 min 0 W/m 13,5 C 19,1 C 0,0 km/h (0 Bft)
28/09/2011 22:10 19,1 C 70 % 1023,2 hPa 0,0 mm 0,0 km/h (0 Bft) E 90 0 min 0 W/m 13,5 C 19,1 C 3,2 km/h (1 Bft)
28/09/2011 22:15 18,9 C 70 % 1023,2 hPa 0,0 mm 0,0 km/h (0 Bft) E-NE 67 0 min 0 W/m 13,3 C 18,9 C 3,2 km/h (1 Bft)
28/09/2011 22:20 18,9 C 70 % 1023,2 hPa 0,0 mm 0,0 km/h (0 Bft) E 90 0 min 0 W/m 13,3 C 18,9 C 0,0 km/h (0 Bft)
28/09/2011 22:25 18,8 C 71 % 1023,2 hPa 0,0 mm 0,4 km/h (0 Bft) E 90 0 min 0 W/m 13,4 C 18,8 C 0,4 km/h (0 Bft)
28/09/2011 22:30 18,8 C 72 % 1023,2 hPa 0,0 mm 1,8 km/h (1 Bft) E 90 0 min 0 W/m 13,6 C 18,8 C 7,2 km/h (2 Bft)
28/09/2011 22:35 18,8 C 73 % 1023,2 hPa 0,0 mm 1,8 km/h (1 Bft) E-NE 67 0 min 0 W/m 13,9 C 18,8 C 2,9 km/h (1 Bft)
28/09/2011 22:40 18,6 C 74 % 1023,2 hPa 0,0 mm 1,8 km/h (1 Bft) SE 135 0 min 0 W/m 13,9 C 18,6 C 1,8 km/h (1 Bft)
28/09/2011 22:45 18,6 C 74 % 1023,2 hPa 0,0 mm 1,1 km/h (1 Bft) E-SE 112 0 min 0 W/m 13,9 C 18,6 C 4,0 km/h (1 Bft)
28/09/2011 22:50 18,6 C 74 % 1023,2 hPa 0,0 mm 2,5 km/h (1 Bft) E-SE 112 0 min 0 W/m 13,9 C 18,6 C 2,5 km/h (1 Bft)
28/09/2011 22:55 18,4 C 74 % 1023,2 hPa 0,0 mm 0,4 km/h (0 Bft) E 90 0 min 0 W/m 13,7 C 18,4 C 0,4 km/h (0 Bft)
28/09/2011 23:00 18,3 C 74 % 1023,2 hPa 0,0 mm 2,5 km/h (1 Bft) E 90 0 min 0 W/m 13,6 C 18,3 C 3,6 km/h (1 Bft)
28/09/2011 23:05 18,2 C 74 % 1023,1 hPa 0,0 mm 0,4 km/h (0 Bft) E 90 0 min 0 W/m 13,5 C 18,2 C 3,2 km/h (1 Bft)
28/09/2011 23:10 18,0 C 75 % 1023,1 hPa 0,0 mm 2,2 km/h (1 Bft) E-SE 112 0 min 0 W/m 13,5 C 18,0 C 3,2 km/h (1 Bft)
28/09/2011 23:15 17,8 C 76 % 1023,1 hPa 0,0 mm 0,7 km/h (0 Bft) E-SE 112 0 min 0 W/m 13,5 C 17,8 C 3,2 km/h (1 Bft)
28/09/2011 23:20 17,8 C 76 % 1023,1 hPa 0,0 mm 0,7 km/h (0 Bft) E-SE 112 0 min 0 W/m 13,5 C 17,8 C 0,7 km/h (0 Bft)
28/09/2011 23:25 17,6 C 76 % 1023,1 hPa 0,0 mm 1,1 km/h (1 Bft) E-SE 112 0 min 0 W/m 13,3 C 17,6 C 3,6 km/h (1 Bft)
28/09/2011 23:30 17,5 C 76 % 1023,1 hPa 0,0 mm 0,4 km/h (0 Bft) SE 135 0 min 0 W/m 13,2 C 17,5 C 0,4 km/h (0 Bft)
28/09/2011 23:35 17,4 C 77 % 1023,2 hPa 0,0 mm 0,4 km/h (0 Bft) E-SE 112 0 min 0 W/m 13,3 C 17,4 C 0,4 km/h (0 Bft)
28/09/2011 23:40 17,3 C 77 % 1023,2 hPa 0,0 mm 1,8 km/h (1 Bft) E 90 0 min 0 W/m 13,2 C 17,3 C 4,0 km/h (1 Bft)
28/09/2011 23:45 17,1 C 77 % 1023,2 hPa 0,0 mm 1,8 km/h (1 Bft) E-SE 112 0 min 0 W/m 13,0 C 17,1 C 4,0 km/h (1 Bft)
28/09/2011 23:50 17,1 C 78 % 1023,1 hPa 0,0 mm 0,7 km/h (0 Bft) E-SE 112 0 min 0 W/m 13,2 C 17,1 C 0,7 km/h (0 Bft)
28/09/2011 23:55 16,9 C 78 % 1023,2 hPa 0,0 mm 0,4 km/h (0 Bft) E 90 0 min 0 W/m 13,0 C 16,9 C 3,2 km/h (1 Bft)
_ Min-Heure 07:40 17:05 20:00 - 22:20 - - - - 07:40 07:40 22:20
Minimum _ 11,7 C 42 % 1022,4 hPa - 0,0 km/h (0 Bft) - - - - 9,8 C 11,7 C 0,0 km/h (0 Bft)
_ Max-Heure 13:55 09:25 00:05 23:55 11:25 - - 08:40 23:55 12:45 13:55 11:25
Maximum _ 30,6 C 90 % 1025,9 hPa 0,0 mm 4,7 km/h
E (1 Bft)
- - 2 min 0 W/m 18,4 C 30,6 C 8,3 km/h
E (2 Bft)
Moyenne _ 20,5 C 68 % 1023,9 hPa #0,0 mm 0,4 km/h (0 Bft) E - #16 min. 0 W/m 13,7 C 20,5 C 1,2 km/h (1 Bft)
Saint Bonnet de Bellac- Haute Vienne - France